Regional Weather Roundup
Issued by NWS Lake Charles, LA

Home | Current Version | Previous Version | Text Only | Print | Product List | Glossary On
Versions: 1 2 3 4 5 6 7 8 9 10 11 12 13 14 15 16 17 18 19 20 21 22 23 24 25 26 27 28 29 30 31 32 33 34 35 36 37 38 39 40 41 42 43 44 45 46 47 48 49 50
000
ASUS44 KLCH 042310
RWRLCH
RWRLCH
REGIONAL WEATHER ROUNDUP
NATIONAL WEATHER SERVICE LAKE CHARLES LA
600 PM CDT SAT JUL 04 2015

Note: "fair" indicates few or no clouds below 12,000 feet with no
significant weather and/or obstructions to visibility.


ACROSS SOUTHEAST TEXAS

CITY           SKY/WX    TMP DP  RH WIND       PRES   REMARKS
BEAUMONT       CLOUDY    88  78  72 S10       29.99F HX 101
BEAUMONT CITY  MOCLDY    85  76  76 S8        30.01F
ORANGE         LGT RAIN  84  73  67 S7        30.02F
JASPER         MOSUNNY   85  75  71 S10       30.02S
$$

ACROSS CENTRAL LOUISIANA

CITY           SKY/WX    TMP DP  RH WIND       PRES   REMARKS
LEESVILLE      CLOUDY    74  71  92 S5        30.01S
FULLERTON      TSTM      74  70  87 VRB3      30.00F
ALEXANDRIA INT LGT RAIN  76  74  93 SE3       30.02F
ESLER FIELD    LGT RAIN  75  72  90 CALM      30.03S FOG
DERIDDER       MOCLDY    74  73  96 CALM      30.04F
OAKDALE        LGT RAIN  78  76  92 CALM      30.01F
OPELOUSAS        N/A     77  72  85 S3        30.02F
$$

ACROSS SOUTHWEST AND SOUTH CENTRAL LOUISIANA

CITY           SKY/WX    TMP DP  RH WIND       PRES   REMARKS
SULPHUR        CLOUDY    84  75  73 S9        30.02S
LAKE CHARLES   CLOUDY    84  75  74 S5        30.01F
CHENNAULT INT  PTSUNNY   84  75  74 S8        30.02F
CAMERON PHI    CLEAR     84  77  79 SW9       30.05S
DEQUINCY       MOCLDY    76  76 100 N6        30.02R
JENNINGS         N/A     78  73  84 SE6       30.02F
LAFAYETTE      CLOUDY    75  72  90 VRB3      30.03F
NEW IBERIA     NOT AVBL
ABBEVILLE        N/A     78  75  90 CALM      30.03F
PATTERSON      CLOUDY    82  75  78 CALM      30.05F
SALT POINT       N/A     86  76  71 VRB5      30.02F
$$

SELECTED SITES ACROSS THE REGION

CITY           SKY/WX    TMP DP  RH WIND       PRES   REMARKS
HOUSTON BUSH   PTSUNNY   88  77  69 S8        29.97F HX 100
HOUSTON HOBBY  CLOUDY    88  77  69 S9G16     29.97F HX 100
GALVESTON      CLOUDY    86  79  79 S10       30.01S
COLLEGE STAT   SUNNY     89  72  56 S12       29.96F
CONROE         LGT RAIN  83  72  69 SE10      29.99R
HUNTSVILLE     SUNNY     88  72  58 S14G21    29.98S
LUFKIN         PTSUNNY   85  69  58 S15G28    29.97R
SHREVEPORT     CLOUDY    74  72  93 SE8       29.97F
MONROE         RAIN      74  70  87 SW8       30.05R
NATCHEZ MS     CLOUDY    73  70  88 S5        30.05S
BATON ROUGE    CLOUDY    75  73  93 E6        30.03F
N.O. INTL ARPT CLOUDY    82  72  71 N5        30.04F
SLIDELL        CLOUDY    80  72  76 N8        30.05S
$$

MARINE REPORTS

STATION/POSITION TIME  TEMP    WIND        PRES    VSBY  WAVE
                       AIR SEA DIR/SP/G                  HT/PER
                 (UTC) (F)     (DEG/KT/KT) (MB)    (MI)  (FT/S)
BUOY 30 S HIGH I 2250   83 84  210/  8/ 10 1015.5F         3/ 5
SEA RIM ST PARK  2300   85     200/ 10/ 13 1016.6F
PORT ARTHUR      2200      85  200/  8/ 12 1016.6R
SABINE PASS N    2200   85 85  210/ 11/ 16 1016.6R
TEXAS POINT      NOT AVBL
CALCASIEU PASS   2200   85 85  220/ 13/ 15   N/A
LK CHARLES BEACH 2200   85 86                N/A
MARSH ISLAND     2200   87     230/  3/  9   N/A           0
FRESH WATER LOCK 2200   85 85  190/  8/  9 1016.7F
AMERADA PASS     2200   84 85  210/  3/  5 1017.4R
$$


USA.gov is the U.S. government's official web portal to all federal, state and local government web resources and services.